Time,TemperatureF,DewpointF,PressureIn,WindDirection,WindDirectionDegrees,WindSpeedMPH,WindSpeedGustMPH,Humidity,HourlyPrecipIn,Conditions,Clouds,dailyrainin,SoftwareType,DateUTC
2013-02-18 00:00:00,26.8,8.2,30.14,West,270,7.6,22.8,31,0.02,,,0.25,fowsr,2013-02-18 05:00:00,
2013-02-18 00:10:00,26.8,10.0,30.14,SW,225,11.4,21.3,35,0.02,,,0.25,fowsr,2013-02-18 05:10:00,
2013-02-18 00:15:00,26.6,8.5,30.14,NW,315,12.1,21.3,32,0.06,,,0.28,fowsr,2013-02-18 05:15:00,
2013-02-18 00:20:00,26.6,8.5,30.15,South,180,7.6,9.8,32,0.14,,,0.37,fowsr,2013-02-18 05:20:00,
2013-02-18 00:25:00,26.4,9.3,30.15,North,0,13.0,22.1,34,0.14,,,0.37,fowsr,2013-02-18 05:25:00,
2013-02-18 00:30:00,26.4,8.8,30.15,SW,225,14.5,25.9,33,0.18,,,0.40,fowsr,2013-02-18 05:30:00,
2013-02-18 00:35:00,26.4,9.3,30.15,SW,225,7.6,18.3,34,0.28,,,0.51,fowsr,2013-02-18 05:35:00,
2013-02-18 00:40:00,26.2,8.7,30.17,NW,315,7.6,11.4,33,0.35,,,0.58,fowsr,2013-02-18 05:40:00,
2013-02-18 00:45:00,26.2,10.0,30.17,SW,225,13.6,28.9,36,0.38,,,0.61,fowsr,2013-02-18 05:45:00,
2013-02-18 00:50:00,26.2,9.1,30.17,NW,315,12.1,22.8,34,0.44,,,0.69,fowsr,2013-02-18 05:50:00,
2013-02-18 00:55:00,26.1,9.0,30.17,NW,315,13.0,19.7,34,0.44,,,0.69,fowsr,2013-02-18 05:55:00,
2013-02-18 01:00:00,25.9,8.4,30.17,SW,225,14.5,26.6,33,0.45,,,0.70,fowsr,2013-02-18 06:00:00,
2013-02-18 01:05:00,25.9,8.4,30.17,SSW,202,9.8,24.4,33,0.47,,,0.72,fowsr,2013-02-18 06:05:00,
2013-02-18 01:15:00,25.7,8.2,30.18,South,180,6.0,11.4,33,0.50,,,0.74,fowsr,2013-02-18 06:15:00,
2013-02-18 01:20:00,25.7,8.2,30.18,NW,315,9.8,15.2,33,0.46,,,0.74,fowsr,2013-02-18 06:20:00,
2013-02-18 01:25:00,25.7,9.5,30.18,WSW,247,13.6,24.4,36,0.44,,,0.80,fowsr,2013-02-18 06:25:00,
2013-02-18 01:30:00,25.7,9.1,30.19,SW,225,11.4,24.4,35,0.46,,,0.83,fowsr,2013-02-18 06:30:00,
2013-02-18 01:35:00,25.7,9.9,30.19,West,270,6.0,12.1,37,0.43,,,0.83,fowsr,2013-02-18 06:35:00,
2013-02-18 01:40:00,25.5,9.3,30.19,SSW,202,13.6,25.1,36,0.32,,,0.83,fowsr,2013-02-18 06:40:00,
2013-02-18 01:45:00,25.3,8.3,30.19,SW,225,9.8,25.1,34,0.28,,,0.86,fowsr,2013-02-18 06:45:00,
2013-02-18 01:50:00,25.3,8.3,30.19,SW,225,9.8,25.1,34,0.25,,,0.86,fowsr,2013-02-18 06:50:00,
2013-02-18 01:55:00,25.3,10.0,30.19,SSW,202,6.9,19.0,38,0.20,,,0.89,fowsr,2013-02-18 06:55:00,
2013-02-18 02:00:00,25.2,9.0,30.19,SW,225,11.4,19.0,36,0.20,,,0.89,fowsr,2013-02-18 07:00:00,
2013-02-18 02:05:00,25.2,8.6,30.19,SW,225,7.6,16.8,35,0.20,,,0.89,fowsr,2013-02-18 07:05:00,
2013-02-18 02:10:00,25.2,9.0,30.19,NW,315,10.7,24.4,36,0.17,,,0.89,fowsr,2013-02-18 07:10:00,
2013-02-18 02:15:00,25.0,8.4,30.20,West,270,7.6,17.4,35,0.17,,,0.89,fowsr,2013-02-18 07:15:00,
2013-02-18 02:20:00,25.0,8.4,30.20,SW,225,6.0,15.2,35,0.14,,,0.89,fowsr,2013-02-18 07:20:00,
2013-02-18 02:25:00,25.0,9.7,30.20,NW,315,6.0,12.1,38,0.14,,,0.89,fowsr,2013-02-18 07:25:00,
2013-02-18 02:30:00,25.0,10.1,30.20,SW,225,14.5,17.4,39,0.08,,,0.89,fowsr,2013-02-18 07:30:00,
2013-02-18 02:35:00,25.0,10.1,30.21,NW,315,7.6,11.4,39,0.06,,,0.89,fowsr,2013-02-18 07:35:00,
2013-02-18 02:40:00,25.0,10.4,30.21,WSW,247,8.3,11.4,40,0.06,,,0.89,fowsr,2013-02-18 07:40:00,
2013-02-18 02:45:00,25.0,10.1,30.22,SW,225,12.1,22.8,39,0.06,,,0.89,fowsr,2013-02-18 07:45:00,
2013-02-18 02:50:00,25.0,10.1,30.22,NW,315,8.3,13.0,39,0.02,,,0.89,fowsr,2013-02-18 07:50:00,
2013-02-18 02:55:00,24.8,9.5,30.21,SW,225,9.8,19.7,38,0.02,,,0.89,fowsr,2013-02-18 07:55:00,
2013-02-18 03:00:00,24.6,9.3,30.21,SW,225,8.3,16.8,38,0.00,,,0.89,fowsr,2013-02-18 08:00:00,
2013-02-18 03:05:00,24.4,9.2,30.22,SW,225,8.3,18.3,38,0.00,,,0.89,fowsr,2013-02-18 08:05:00,
2013-02-18 03:10:00,24.4,9.2,30.22,SW,225,9.8,19.7,38,0.00,,,0.89,fowsr,2013-02-18 08:10:00,
2013-02-18 03:15:00,24.4,9.6,30.21,SW,225,6.9,11.4,39,0.00,,,0.89,fowsr,2013-02-18 08:15:00,
2013-02-18 03:20:00,24.4,9.2,30.22,NW,315,10.7,21.3,38,0.00,,,0.89,fowsr,2013-02-18 08:20:00,
2013-02-18 03:25:00,24.4,9.6,30.22,SW,225,10.7,23.5,39,0.00,,,0.89,fowsr,2013-02-18 08:25:00,
2013-02-18 03:30:00,24.4,9.2,30.22,SW,225,6.0,9.8,38,0.00,,,0.89,fowsr,2013-02-18 08:30:00,
2013-02-18 03:35:00,24.4,9.2,30.22,South,180,5.4,10.7,38,0.00,,,0.89,fowsr,2013-02-18 08:35:00,
2013-02-18 03:40:00,24.4,9.6,30.22,WNW,292,8.3,13.0,39,0.00,,,0.89,fowsr,2013-02-18 08:40:00,
2013-02-18 03:45:00,24.3,9.0,30.22,NW,315,6.9,11.4,38,0.00,,,0.89,fowsr,2013-02-18 08:45:00,
2013-02-18 03:50:00,24.3,9.0,30.23,NW,315,6.9,11.4,38,0.00,,,0.89,fowsr,2013-02-18 08:50:00,
2013-02-18 03:55:00,24.3,9.8,30.23,WSW,247,8.3,17.4,40,0.00,,,0.89,fowsr,2013-02-18 08:55:00,
2013-02-18 04:00:00,24.3,10.9,30.24,NW,315,9.8,14.5,43,0.00,,,0.89,fowsr,2013-02-18 09:00:00,
2013-02-18 04:05:00,24.3,10.5,30.24,West,270,5.4,13.6,42,0.00,,,0.89,fowsr,2013-02-18 09:05:00,
2013-02-18 04:10:00,24.3,10.9,30.24,East,90,9.8,13.0,43,0.00,,,0.89,fowsr,2013-02-18 09:10:00,
2013-02-18 04:15:00,24.3,10.9,30.24,SW,225,3.8,9.2,43,0.00,,,0.89,fowsr,2013-02-18 09:15:00,
2013-02-18 04:20:00,24.3,10.9,30.25,SW,225,8.3,15.2,43,0.00,,,0.89,fowsr,2013-02-18 09:20:00,
2013-02-18 04:25:00,24.3,10.9,30.25,WSW,247,5.4,11.4,43,0.00,,,0.89,fowsr,2013-02-18 09:25:00,
2013-02-18 04:30:00,24.3,11.2,30.25,West,270,5.4,9.8,44,0.00,,,0.89,fowsr,2013-02-18 09:30:00,
2013-02-18 04:35:00,24.3,10.9,30.26,WSW,247,5.4,12.1,43,0.00,,,0.89,fowsr,2013-02-18 09:35:00,
2013-02-18 04:40:00,24.3,10.9,30.26,NW,315,7.6,11.4,43,0.00,,,0.89,fowsr,2013-02-18 09:40:00,
2013-02-18 04:45:00,24.3,11.2,30.26,SW,225,6.9,12.1,44,0.00,,,0.89,fowsr,2013-02-18 09:45:00,
2013-02-18 04:50:00,24.3,11.2,30.27,West,270,8.3,22.8,44,0.00,,,0.89,fowsr,2013-02-18 09:50:00,
2013-02-18 04:55:00,24.3,11.2,30.27,SW,225,6.0,11.4,44,0.00,,,0.89,fowsr,2013-02-18 09:55:00,
2013-02-18 05:00:00,24.3,10.9,30.27,SW,225,10.7,16.8,43,0.00,,,0.89,fowsr,2013-02-18 10:00:00,
2013-02-18 05:05:00,24.1,10.7,30.27,NW,315,7.6,14.5,43,0.00,,,0.89,fowsr,2013-02-18 10:05:00,
2013-02-18 05:10:00,24.1,10.7,30.28,NW,315,6.0,13.0,43,0.00,,,0.89,fowsr,2013-02-18 10:10:00,
2013-02-18 05:15:00,24.1,10.7,30.29,SW,225,4.5,6.9,43,0.00,,,0.89,fowsr,2013-02-18 10:15:00,
2013-02-18 05:20:00,24.1,10.7,30.29,West,270,6.0,12.1,43,0.00,,,0.89,fowsr,2013-02-18 10:20:00,
2013-02-18 05:25:00,23.9,10.5,30.29,SW,225,8.3,16.8,43,0.00,,,0.89,fowsr,2013-02-18 10:25:00,
2013-02-18 05:30:00,23.9,10.5,30.29,West,270,9.2,20.6,43,0.00,,,0.89,fowsr,2013-02-18 10:30:00,
2013-02-18 05:35:00,23.9,10.2,30.29,SW,225,6.0,10.7,42,0.00,,,0.89,fowsr,2013-02-18 10:35:00,
2013-02-18 05:40:00,23.9,10.5,30.29,SW,225,8.3,15.2,43,0.00,,,0.89,fowsr,2013-02-18 10:40:00,
2013-02-18 05:45:00,23.9,10.2,30.29,NW,315,13.0,19.0,42,0.00,,,0.89,fowsr,2013-02-18 10:45:00,
2013-02-18 05:50:00,23.9,9.8,30.30,NW,315,5.4,10.7,41,0.00,,,0.89,fowsr,2013-02-18 10:50:00,
2013-02-18 05:55:00,23.9,10.5,30.30,West,270,8.3,13.6,43,0.00,,,0.89,fowsr,2013-02-18 10:55:00,
2013-02-18 06:00:00,23.9,10.2,30.30,SW,225,9.8,19.0,42,0.00,,,0.89,fowsr,2013-02-18 11:00:00,
2013-02-18 06:05:00,23.7,10.0,30.31,SW,225,9.2,17.4,42,0.00,,,0.89,fowsr,2013-02-18 11:05:00,
2013-02-18 06:15:00,23.7,10.4,30.31,SW,225,9.2,18.3,43,0.00,,,0.89,fowsr,2013-02-18 11:15:00,
2013-02-18 06:20:00,23.9,10.5,30.31,West,270,6.9,11.4,43,0.00,,,0.89,fowsr,2013-02-18 11:20:00,
2013-02-18 06:25:00,23.7,10.4,30.31,NW,315,6.0,9.8,43,0.00,,,0.89,fowsr,2013-02-18 11:25:00,
2013-02-18 06:30:00,23.9,10.5,30.31,SW,225,6.9,14.5,43,0.00,,,0.89,fowsr,2013-02-18 11:30:00,
2013-02-18 06:40:00,23.9,10.5,30.32,South,180,4.5,11.4,43,0.00,,,0.89,fowsr,2013-02-18 11:40:00,
2013-02-18 06:45:00,23.9,10.5,30.32,NW,315,10.7,22.8,43,0.00,,,0.89,fowsr,2013-02-18 11:45:00,
2013-02-18 06:50:00,23.9,10.5,30.33,SW,225,7.6,16.8,43,0.00,,,0.89,fowsr,2013-02-18 11:50:00,
2013-02-18 06:55:00,23.7,10.0,30.33,SW,225,7.6,14.5,42,0.00,,,0.89,fowsr,2013-02-18 11:55:00,
2013-02-18 07:00:00,23.9,10.5,30.33,SW,225,10.7,15.9,43,0.00,,,0.89,fowsr,2013-02-18 12:00:00,
2013-02-18 07:05:00,23.9,10.5,30.33,North,0,4.5,6.9,43,0.00,,,0.89,fowsr,2013-02-18 12:05:00,
2013-02-18 07:10:00,23.9,10.5,30.33,West,270,7.6,10.7,43,0.00,,,0.89,fowsr,2013-02-18 12:10:00,
2013-02-18 07:15:00,23.9,10.5,30.33,SW,225,5.4,12.1,43,0.00,,,0.89,fowsr,2013-02-18 12:15:00,
2013-02-18 07:23:00,24.1,10.7,30.33,SW,225,8.3,16.8,43,0.00,,,0.89,fowsr,2013-02-18 12:23:00,
2013-02-18 07:30:00,24.3,10.9,30.34,SW,225,8.3,15.2,43,0.00,,,0.89,fowsr,2013-02-18 12:30:00,
2013-02-18 07:35:00,24.4,11.0,30.35,WNW,292,6.9,12.1,43,0.00,,,0.89,fowsr,2013-02-18 12:35:00,
2013-02-18 07:40:00,24.6,11.2,30.35,NW,315,9.8,18.3,43,0.00,,,0.89,fowsr,2013-02-18 12:40:00,
2013-02-18 07:45:00,24.4,10.3,30.35,South,180,6.9,11.4,41,0.00,,,0.89,fowsr,2013-02-18 12:45:00,
2013-02-18 07:50:00,24.6,11.2,30.35,SW,225,6.0,11.4,43,0.00,,,0.89,fowsr,2013-02-18 12:50:00,
2013-02-18 07:55:00,24.8,11.0,30.36,West,270,8.3,13.6,42,0.00,,,0.89,fowsr,2013-02-18 12:55:00,
2013-02-18 08:00:00,24.8,11.0,30.36,SW,225,8.3,13.0,42,0.00,,,0.89,fowsr,2013-02-18 13:00:00,
2013-02-18 08:05:00,25.0,11.2,30.37,SW,225,10.7,15.9,42,0.00,,,0.89,fowsr,2013-02-18 13:05:00,
2013-02-18 08:15:00,25.5,11.6,30.37,SW,225,8.3,13.0,42,0.00,,,0.89,fowsr,2013-02-18 13:15:00,
2013-02-18 08:25:00,26.1,12.1,30.37,West,270,4.5,9.2,42,0.00,,,0.89,fowsr,2013-02-18 13:25:00,
2013-02-18 08:35:00,26.4,12.1,30.38,SW,225,7.6,10.7,41,0.00,,,0.89,fowsr,2013-02-18 13:35:00,
2013-02-18 08:40:00,26.4,12.5,30.38,NW,315,8.3,12.1,42,0.00,,,0.89,fowsr,2013-02-18 13:40:00,
2013-02-18 08:50:00,26.4,11.7,30.38,SW,225,4.5,9.2,40,0.00,,,0.89,fowsr,2013-02-18 13:50:00,
2013-02-18 08:55:00,26.8,11.7,30.38,South,180,5.4,10.7,39,0.00,,,0.89,fowsr,2013-02-18 13:55:00,
2013-02-18 09:00:00,27.0,12.6,30.38,SW,225,6.9,15.2,41,0.00,,,0.89,fowsr,2013-02-18 14:00:00,
2013-02-18 09:05:00,27.1,12.4,30.38,WNW,292,3.1,5.4,40,0.00,,,0.89,fowsr,2013-02-18 14:05:00,
2013-02-18 09:10:00,27.3,11.7,30.38,WNW,292,8.3,14.5,38,0.00,,,0.89,fowsr,2013-02-18 14:10:00,
2013-02-18 09:15:00,27.1,11.6,30.38,North,0,6.9,12.1,38,0.00,,,0.89,fowsr,2013-02-18 14:15:00,
2013-02-18 09:20:00,27.3,11.7,30.38,West,270,6.9,13.0,38,0.00,,,0.89,fowsr,2013-02-18 14:20:00,
2013-02-18 09:25:00,27.3,11.3,30.38,SW,225,3.8,7.6,37,0.00,,,0.89,fowsr,2013-02-18 14:25:00,
2013-02-18 09:30:00,27.7,12.5,30.38,West,270,6.9,12.1,39,0.00,,,0.89,fowsr,2013-02-18 14:30:00,
2013-02-18 09:35:00,27.7,12.5,30.38,West,270,6.9,12.1,39,0.00,,,0.89,fowsr,2013-02-18 14:35:00,
2013-02-18 09:40:00,27.7,11.7,30.39,SW,225,3.1,5.4,37,0.00,,,0.89,fowsr,2013-02-18 14:40:00,
2013-02-18 09:45:00,27.9,11.4,30.39,SW,225,5.4,7.6,36,0.00,,,0.89,fowsr,2013-02-18 14:45:00,
2013-02-18 09:50:00,28.2,12.1,30.38,West,270,7.6,17.4,37,0.00,,,0.89,fowsr,2013-02-18 14:50:00,
2013-02-18 09:55:00,28.0,11.6,30.39,SW,225,3.1,4.5,36,0.00,,,0.89,fowsr,2013-02-18 14:55:00,
2013-02-18 10:00:00,28.4,13.5,30.39,SW,225,6.0,10.7,40,0.00,,,0.89,fowsr,2013-02-18 15:00:00,
2013-02-18 10:05:00,28.4,13.5,30.39,SW,225,5.4,12.1,40,0.00,,,0.89,fowsr,2013-02-18 15:05:00,
2013-02-18 10:10:00,28.4,13.5,30.39,SW,225,9.8,14.5,40,0.00,,,0.89,fowsr,2013-02-18 15:10:00,
2013-02-18 10:15:00,28.4,13.9,30.39,SW,225,5.4,8.3,41,0.00,,,0.89,fowsr,2013-02-18 15:15:00,
2013-02-18 10:20:00,28.6,13.3,30.39,SW,225,3.8,6.9,39,0.00,,,0.89,fowsr,2013-02-18 15:20:00,
2013-02-18 10:25:00,28.9,13.6,30.38,West,270,3.1,6.0,39,0.00,,,0.89,fowsr,2013-02-18 15:25:00,
2013-02-18 10:30:00,29.3,13.9,30.39,South,180,5.4,9.2,39,0.00,,,0.89,fowsr,2013-02-18 15:30:00,
2013-02-18 10:35:00,29.1,13.3,30.39,West,270,6.0,13.6,38,0.00,,,0.89,fowsr,2013-02-18 15:35:00,
2013-02-18 10:40:00,29.1,13.3,30.39,NNW,337,9.8,14.5,38,0.00,,,0.89,fowsr,2013-02-18 15:40:00,
2013-02-18 10:45:00,29.3,13.9,30.39,West,270,9.2,14.5,39,0.00,,,0.89,fowsr,2013-02-18 15:45:00,
2013-02-18 10:50:00,29.7,14.6,30.39,SSW,202,6.9,9.8,40,0.00,,,0.89,fowsr,2013-02-18 15:50:00,
2013-02-18 10:55:00,29.7,13.8,30.39,SW,225,6.0,11.4,38,0.00,,,0.89,fowsr,2013-02-18 15:55:00,
2013-02-18 11:00:00,29.5,13.7,30.39,NNE,22,6.0,9.2,38,0.00,,,0.89,fowsr,2013-02-18 16:00:00,
2013-02-18 11:05:00,30.0,14.1,30.39,South,180,4.5,6.9,38,0.00,,,0.89,fowsr,2013-02-18 16:05:00,
2013-02-18 11:10:00,30.4,14.4,30.38,WSW,247,3.1,4.5,38,0.00,,,0.89,fowsr,2013-02-18 16:10:00,
2013-02-18 11:15:00,30.7,14.4,30.39,West,270,4.5,13.0,37,0.00,,,0.89,fowsr,2013-02-18 16:15:00,
2013-02-18 11:20:00,31.1,14.2,30.38,North,0,6.9,11.4,36,0.00,,,0.89,fowsr,2013-02-18 16:20:00,
2013-02-18 11:30:00,31.3,14.4,30.38,SW,225,6.0,8.3,36,0.00,,,0.89,fowsr,2013-02-18 16:30:00,
2013-02-18 11:35:00,30.9,13.7,30.38,SW,225,3.8,9.2,35,0.00,,,0.89,fowsr,2013-02-18 16:35:00,
2013-02-18 11:45:00,31.5,14.6,30.37,West,270,4.5,7.6,36,0.00,,,0.89,fowsr,2013-02-18 16:45:00,
2013-02-18 11:55:00,31.8,15.3,30.38,SW,225,5.4,8.3,37,0.00,,,0.89,fowsr,2013-02-18 16:55:00,
2013-02-18 12:00:00,32.4,15.4,30.38,West,270,7.6,9.8,36,0.00,,,0.87,fowsr,2013-02-18 17:00:00,
2013-02-18 12:10:00,32.2,14.3,30.37,West,270,6.0,11.4,34,0.00,,,0.87,fowsr,2013-02-18 17:10:00,
2013-02-18 12:15:00,32.4,14.9,30.37,WSW,247,4.5,7.6,35,0.00,,,0.87,fowsr,2013-02-18 17:15:00,
2013-02-18 12:25:00,32.5,14.6,30.36,SW,225,5.4,9.2,34,0.00,,,0.87,fowsr,2013-02-18 17:25:00,
2013-02-18 12:35:00,33.1,15.1,30.35,NW,315,3.1,8.3,34,0.00,,,0.87,fowsr,2013-02-18 17:35:00,
2013-02-18 12:40:00,33.1,14.6,30.34,West,270,6.0,7.6,33,0.00,,,0.87,fowsr,2013-02-18 17:40:00,
2013-02-18 12:45:00,33.3,14.8,30.37,South,180,3.8,6.9,33,0.00,,,0.87,fowsr,2013-02-18 17:45:00,
2013-02-18 12:55:00,33.6,15.1,30.34,South,180,5.4,7.6,33,0.00,,,0.87,fowsr,2013-02-18 17:55:00,
2013-02-18 13:00:00,33.4,14.9,30.34,NW,315,4.5,9.2,33,0.00,,,0.87,fowsr,2013-02-18 18:00:00,
2013-02-18 13:10:00,33.8,14.8,30.34,SW,225,4.5,9.2,32,0.00,,,0.87,fowsr,2013-02-18 18:10:00,
2013-02-18 13:15:00,33.4,14.9,30.33,NW,315,0.7,2.2,33,0.00,,,0.87,fowsr,2013-02-18 18:15:00,
2013-02-18 13:20:00,34.0,15.4,30.33,SW,225,4.5,5.4,33,0.00,,,0.87,fowsr,2013-02-18 18:20:00,
2013-02-18 13:30:00,34.7,16.0,30.33,SW,225,3.1,5.4,33,0.00,,,0.86,fowsr,2013-02-18 18:30:00,
2013-02-18 13:35:00,34.5,15.9,30.33,NNE,22,7.6,13.6,33,0.00,,,0.86,fowsr,2013-02-18 18:35:00,
2013-02-18 13:45:00,34.3,15.7,30.33,South,180,2.2,5.4,33,0.00,,,0.86,fowsr,2013-02-18 18:45:00,
2013-02-18 13:50:00,34.9,16.7,30.32,SW,225,7.6,13.0,34,0.00,,,0.86,fowsr,2013-02-18 18:50:00,
2013-02-18 13:55:00,34.5,15.9,30.33,SW,225,3.8,6.0,33,0.00,,,0.86,fowsr,2013-02-18 18:55:00,
2013-02-18 14:00:00,35.1,16.3,30.33,SW,225,4.5,6.0,33,0.00,,,0.86,fowsr,2013-02-18 19:00:00,
2013-02-18 14:05:00,34.7,16.0,30.33,SW,225,4.5,6.0,33,0.00,,,0.86,fowsr,2013-02-18 19:05:00,
2013-02-18 14:10:00,35.1,16.3,30.32,SW,225,1.6,3.8,33,0.00,,,0.86,fowsr,2013-02-18 19:10:00,
2013-02-18 14:15:00,35.2,17.0,30.32,South,180,6.0,7.6,34,0.00,,,0.86,fowsr,2013-02-18 19:15:00,
2013-02-18 14:20:00,35.1,16.3,30.32,West,270,3.1,5.4,33,0.00,,,0.86,fowsr,2013-02-18 19:20:00,
2013-02-18 14:30:00,35.6,16.3,30.32,SW,225,4.5,6.0,32,0.00,,,0.86,fowsr,2013-02-18 19:30:00,
2013-02-18 14:35:00,35.8,16.5,30.32,SW,225,4.5,6.9,32,0.00,,,0.86,fowsr,2013-02-18 19:35:00,
2013-02-18 14:45:00,36.1,17.3,30.32,SW,225,5.4,9.2,33,0.00,,,0.86,fowsr,2013-02-18 19:45:00,
2013-02-18 14:50:00,36.1,16.8,30.34,SW,225,5.4,9.2,32,0.00,,,0.86,fowsr,2013-02-18 19:50:00,
2013-02-18 15:00:00,36.9,17.9,30.31,West,270,3.1,6.9,33,0.00,,,0.86,fowsr,2013-02-18 20:00:00,
2013-02-18 15:05:00,37.0,17.6,30.31,SW,225,5.4,8.3,32,0.00,,,0.86,fowsr,2013-02-18 20:05:00,
2013-02-18 15:10:00,36.9,17.4,30.34,SW,225,3.8,7.6,32,0.00,,,0.86,fowsr,2013-02-18 20:10:00,
2013-02-18 15:15:00,36.9,17.4,30.31,SW,225,3.8,6.0,32,0.00,,,0.86,fowsr,2013-02-18 20:15:00,
2013-02-18 15:25:00,37.0,16.6,30.31,SW,225,4.5,6.9,30,0.00,,,0.86,fowsr,2013-02-18 20:25:00,
2013-02-18 15:38:00,37.2,16.2,30.31,SSE,157,6.0,7.6,29,0.00,,,0.86,fowsr,2013-02-18 20:38:00,
2013-02-18 15:45:00,37.6,19.5,30.31,SW,225,5.4,8.3,35,0.00,,,0.86,fowsr,2013-02-18 20:45:00,
2013-02-18 15:55:00,37.6,18.5,30.31,SW,225,5.4,6.9,33,0.00,,,0.86,fowsr,2013-02-18 20:55:00,
2013-02-18 16:05:00,38.3,19.6,30.31,WSW,247,5.4,9.8,34,0.00,,,0.86,fowsr,2013-02-18 21:05:00,
2013-02-18 16:10:00,38.1,19.5,30.31,SW,225,6.0,8.3,34,0.00,,,0.86,fowsr,2013-02-18 21:10:00,
2013-02-18 16:15:00,37.9,18.8,30.31,SW,225,5.4,9.2,33,0.00,,,0.86,fowsr,2013-02-18 21:15:00,
2013-02-18 16:25:00,37.8,19.6,30.31,SW,225,3.1,4.5,35,0.00,,,0.86,fowsr,2013-02-18 21:25:00,
2013-02-18 16:30:00,37.8,19.2,30.31,South,180,2.2,3.8,34,0.00,,,0.86,fowsr,2013-02-18 21:30:00,
2013-02-18 16:38:00,37.8,19.2,30.31,West,270,2.2,3.8,34,0.00,,,0.86,fowsr,2013-02-18 21:38:00,
2013-02-18 16:45:00,37.8,19.6,30.30,SW,225,2.2,3.1,35,0.00,,,0.86,fowsr,2013-02-18 21:45:00,
2013-02-18 16:55:00,37.4,18.9,30.30,SW,225,3.1,5.4,34,0.00,,,0.86,fowsr,2013-02-18 21:55:00,
2013-02-18 17:00:00,37.2,17.7,30.30,West,270,0.7,2.2,32,0.00,,,0.86,fowsr,2013-02-18 22:00:00,
2013-02-18 17:05:00,37.2,17.7,30.31,South,180,1.6,3.1,32,0.00,,,0.86,fowsr,2013-02-18 22:05:00,
2013-02-18 17:10:00,36.9,17.4,30.33,SE,135,1.6,2.2,32,0.00,,,0.86,fowsr,2013-02-18 22:10:00,
2013-02-18 17:20:00,36.3,17.9,30.31,SW,225,2.2,3.1,34,0.00,,,0.86,fowsr,2013-02-18 22:20:00,
2013-02-18 17:30:00,35.6,18.6,30.31,SW,225,3.1,3.8,37,0.00,,,0.86,fowsr,2013-02-18 22:30:00,
2013-02-18 17:35:00,35.4,18.9,30.31,SW,225,2.2,3.8,38,0.00,,,0.86,fowsr,2013-02-18 22:35:00,
2013-02-18 17:45:00,35.1,19.0,30.31,SW,225,0.0,1.6,39,0.00,,,0.86,fowsr,2013-02-18 22:45:00,
2013-02-18 17:55:00,34.9,19.2,30.31,WSW,247,2.2,3.8,40,0.00,,,0.86,fowsr,2013-02-18 22:55:00,
2013-02-18 18:00:00,34.9,20.0,30.32,SW,225,2.2,5.4,42,0.00,,,0.86,fowsr,2013-02-18 23:00:00,
2013-02-18 18:05:00,34.9,20.0,30.32,SW,225,4.5,6.0,42,0.00,,,0.86,fowsr,2013-02-18 23:05:00,
2013-02-18 18:10:00,34.9,20.0,30.34,SW,225,2.2,3.8,42,0.00,,,0.86,fowsr,2013-02-18 23:10:00,
2013-02-18 18:20:00,35.1,20.2,30.32,West,270,2.2,3.8,42,0.00,,,0.86,fowsr,2013-02-18 23:20:00,
2013-02-18 18:25:00,35.1,20.2,30.32,South,180,3.1,5.4,42,0.00,,,0.86,fowsr,2013-02-18 23:25:00,
2013-02-18 18:35:00,35.2,20.0,30.32,SE,135,5.4,7.6,41,0.00,,,0.86,fowsr,2013-02-18 23:35:00,
2013-02-18 18:45:00,35.2,19.6,30.32,SW,225,3.1,6.0,40,0.00,,,0.86,fowsr,2013-02-18 23:45:00,
2013-02-18 18:55:00,35.2,18.7,30.33,SW,225,4.5,6.0,38,0.00,,,0.86,fowsr,2013-02-18 23:55:00,
2013-02-18 19:00:00,35.2,18.7,30.33,SW,225,3.8,4.5,38,0.00,,,0.86,fowsr,2013-02-19 00:00:00,
2013-02-18 19:13:00,35.1,19.4,30.33,SW,225,2.2,4.5,40,0.00,,,0.84,fowsr,2013-02-19 00:13:00,
2013-02-18 19:20:00,34.9,20.0,30.33,SW,225,1.6,3.1,42,0.00,,,0.80,fowsr,2013-02-19 00:20:00,
2013-02-18 19:25:00,34.9,20.0,30.33,SW,225,2.2,3.1,42,0.00,,,0.80,fowsr,2013-02-19 00:25:00,
2013-02-18 19:33:00,34.7,20.3,30.33,South,180,3.1,4.5,43,0.00,,,0.80,fowsr,2013-02-19 00:33:00,
2013-02-18 19:41:00,34.7,20.3,30.34,SW,225,2.2,5.4,43,0.00,,,0.79,fowsr,2013-02-19 00:41:00,
2013-02-18 19:50:00,34.7,20.6,30.33,South,180,3.8,7.6,44,0.00,,,0.79,fowsr,2013-02-19 00:50:00,
2013-02-18 20:00:00,34.7,20.3,30.33,SE,135,1.6,3.1,43,0.00,,,0.79,fowsr,2013-02-19 01:00:00,
2013-02-18 20:05:00,34.5,20.5,30.33,SW,225,1.6,3.1,44,0.00,,,0.79,fowsr,2013-02-19 01:05:00,
2013-02-18 20:10:00,34.2,20.1,30.33,South,180,0.7,1.6,44,0.00,,,0.79,fowsr,2013-02-19 01:10:00,
2013-02-18 20:15:00,34.0,20.0,30.33,South,180,0.7,1.6,44,0.00,,,0.79,fowsr,2013-02-19 01:15:00,
2013-02-18 20:20:00,33.8,20.2,30.33,South,180,0.0,0.0,45,0.00,,,0.79,fowsr,2013-02-19 01:20:00,
2013-02-18 20:25:00,33.6,20.4,30.33,East,90,0.7,2.2,46,0.00,,,0.79,fowsr,2013-02-19 01:25:00,
2013-02-18 20:30:00,33.3,20.4,30.34,East,90,2.2,3.8,47,0.00,,,0.79,fowsr,2013-02-19 01:30:00,
2013-02-18 20:35:00,33.3,20.7,30.33,SE,135,1.6,3.8,48,0.00,,,0.79,fowsr,2013-02-19 01:35:00,
2013-02-18 20:40:00,33.3,20.7,30.32,SE,135,0.7,1.6,48,0.00,,,0.79,fowsr,2013-02-19 01:40:00,
2013-02-18 20:45:00,33.3,20.7,30.33,SE,135,0.7,1.6,48,0.00,,,0.79,fowsr,2013-02-19 01:45:00,
2013-02-18 20:55:00,33.3,20.7,30.32,SE,135,0.7,1.6,48,0.00,,,0.79,fowsr,2013-02-19 01:55:00,
2013-02-18 21:05:00,33.1,20.9,30.33,SE,135,1.6,2.2,49,0.00,,,0.78,fowsr,2013-02-19 02:05:00,
2013-02-18 21:13:00,33.1,21.2,30.32,SE,135,0.7,2.2,50,0.00,,,0.77,fowsr,2013-02-19 02:13:00,
2013-02-18 21:20:00,33.3,20.7,30.32,SE,135,0.0,1.6,48,0.00,,,0.76,fowsr,2013-02-19 02:20:00,
2013-02-18 21:25:00,33.3,20.4,30.32,SE,135,0.7,2.2,47,0.00,,,0.76,fowsr,2013-02-19 02:25:00,
2013-02-18 21:30:00,33.3,20.0,30.32,ESE,112,0.7,2.2,46,0.00,,,0.76,fowsr,2013-02-19 02:30:00,
2013-02-18 21:35:00,33.3,20.0,30.32,SW,225,0.7,1.6,46,0.00,,,0.73,fowsr,2013-02-19 02:35:00,
2013-02-18 21:43:00,33.3,20.0,30.31,SE,135,0.7,1.6,46,0.00,,,0.72,fowsr,2013-02-19 02:43:00,
2013-02-18 21:50:00,33.1,19.9,30.31,SE,135,0.0,0.7,46,0.00,,,0.70,fowsr,2013-02-19 02:50:00,
2013-02-18 21:55:00,32.9,19.7,30.31,SE,135,0.0,0.7,46,0.00,,,0.70,fowsr,2013-02-19 02:55:00,
2013-02-18 22:00:00,33.1,20.2,30.30,SE,135,0.7,1.6,47,0.00,,,0.70,fowsr,2013-02-19 03:00:00,
2013-02-18 22:08:00,33.1,20.2,30.31,SE,135,0.7,2.2,47,0.00,,,0.70,fowsr,2013-02-19 03:08:00,
2013-02-18 22:15:00,33.6,20.7,30.31,East,90,1.6,3.1,47,0.00,,,0.70,fowsr,2013-02-19 03:15:00,
2013-02-18 22:20:00,34.0,20.7,30.30,ENE,67,1.6,3.1,46,0.00,,,0.69,fowsr,2013-02-19 03:20:00,
2013-02-18 22:25:00,34.2,20.9,30.30,SE,135,1.6,3.1,46,0.00,,,0.69,fowsr,2013-02-19 03:25:00,
2013-02-18 22:30:00,34.3,21.0,30.30,SSE,157,1.6,4.5,46,0.00,,,0.69,fowsr,2013-02-19 03:30:00,
2013-02-18 22:35:00,34.5,20.8,30.30,SSE,157,1.6,3.1,45,0.00,,,0.69,fowsr,2013-02-19 03:35:00,
2013-02-18 22:40:00,34.9,21.2,30.30,East,90,1.6,3.1,45,0.00,,,0.67,fowsr,2013-02-19 03:40:00,
2013-02-18 22:45:00,34.9,21.2,30.30,SE,135,2.2,6.0,45,0.00,,,0.67,fowsr,2013-02-19 03:45:00,
2013-02-18 22:50:00,34.9,21.5,30.29,SE,135,1.6,2.2,46,0.00,,,0.67,fowsr,2013-02-19 03:50:00,
2013-02-18 22:55:00,34.9,21.9,30.29,East,90,1.6,3.1,47,0.00,,,0.66,fowsr,2013-02-19 03:55:00,
2013-02-18 23:00:00,34.9,21.9,30.29,East,90,2.2,5.4,47,0.00,,,0.66,fowsr,2013-02-19 04:00:00,
2013-02-18 23:10:00,34.9,22.2,30.28,SE,135,2.2,3.8,48,0.00,,,0.66,fowsr,2013-02-19 04:10:00,
2013-02-18 23:15:00,34.9,22.2,30.29,SE,135,0.7,2.2,48,0.00,,,0.66,fowsr,2013-02-19 04:15:00,
2013-02-18 23:28:00,34.9,23.2,30.29,SE,135,2.2,6.0,51,0.00,,,0.66,fowsr,2013-02-19 04:28:00,
2013-02-18 23:35:00,35.1,23.7,30.28,SE,135,1.6,3.8,52,0.00,,,0.66,fowsr,2013-02-19 04:35:00,
2013-02-18 23:40:00,35.1,24.0,30.28,SE,135,2.2,9.2,53,0.00,,,0.66,fowsr,2013-02-19 04:40:00,
2013-02-18 23:50:00,35.2,24.8,30.28,SE,135,1.6,3.1,55,0.00,,,0.64,fowsr,2013-02-19 04:50:00,